You are not logged in, Click here to log in
杭州萧山国际机场 / ZSHC 大陸
ICAO: ZSHC Country: 大陸
Latitude: 30.2359 Longitude: 120.439
Total Arrivals: 8 Total Departures: 8
Latest Arrival: CA150 (RCTP-ZSHC)CHU. CHUHAO Latest Departure: BR2771 (ZSHC-RCTP)CHU. CHUHAO
Scenery:
METAR : ZSHC 110400Z 07003MPS 040V110 4000 BR FEW011 SCT033 30/27 Q1004 NOSIG

杭州萧山国际机场

You are accessing this site from IP address 34.229.119.29. Virtual Airline. CMS by phpVMS.Website designed by Zumeweb and edited by Theo Bearman.
There is 1 User(s) Online: | Lun Wang | and 12 Guest(s) Online.
All information on this site is for fight simulation purposes only. This site is for flight logging for pilots of Virtual Airline&模擬飛行論壇 FlySim only.